SCP
0 0 0 0 0 0 0 0 0 0 0 0 0 0 0 0 0 0 0 2 1 -0 -0 -0 -0 -0 -0 -0 -0 -0 -0 -0
0 0 0 0 0 0 0 0 0 0 0 0 0 -0 0 0 0 0 0 0 0 -0 -0 -0 -0 -0 -0 -0 -0 -0 -0 -0
0 0 0 0 0 0 0 0 0 0 0 0 0 0 0 0 -0 0 0 -0 0 0 0 -0 -0 -0 -0 -0 -0 -0 -0 -0
0 0 0 0 0 0 0 0 0 0 0 0 0 0 0 0 0 0 1 1 1 0 0 0 0 -0 -0 -0 -0 -0 -0 -0
0 0 0 0 0 0 0 0 0 0 0 0 1 0 0 1 1 1 1 1 1 1 0 0 0 0 -0 -0 -0 -0 -0 -0
0 0 0 0 0 0 0 0 0 0 0 0 0 0 1 1 0 0 0 1 2 1 1 0 0 0 0 -0 -0 -0 -0 0
0 0 0 0 0 -0 0 0 0 0 0 0 0 1 2 1 1 1 1 1 1 1 0 0 0 0 0 -0 -0 -0 -0 0
0 0 0 0 0 0 0 0 0 0 0 -1 -1 1 1 0 1 1 1 1 1 1 1 0 0 0 0 0 0 0 0 0
0 0 0 -0 0 0 0 0 0 0 0 -0 -0 1 1 0 1 1 1 1 1 1 1 0 0 0 0 0 0 0 0 0
0 0 0 0 -0 -0 0 0 0 0 0 0 -0 0 0 0 0 0 1 1 1 1 1 0 0 0 0 0 0 0 0 0
0 0 0 0 0 0 -0 0 0 0 0 0 0 -0 -0 -0 0 0 0 1 1 1 1 0 0 0 0 0 0 0 0 0
0 0 0 0 -0 -0 -0 0 0 0 0 0 0 0 0 0 -0 0 0 0 0 1 0 0 0 0 0 0 0 0 0 0
0 0 0 0 -0 -0 0 0 0 0 0 0 0 0 0 0 0 0 0 0 0 0 0 0 0 0 0 0 0 0 0 0
0 0 0 0 -0 0 0 0 -0 0 0 0 0 0 0 0 0 0 0 0 0 0 0 0 0 0 0 0 0 0 0 0
0 0 0 0 -0 -0 0 -0 -0 -0 0 0 0 0 0 0 0 0 0 0 1 0 0 0 0 0 0 0 0 0 0 0
0 0 0 0 0 0 -0 -0 -0 -0 -0 0 0 0 0 -0 -0 0 0 0 0 0 0 0 0 0 0 0 0 0 0 0
0 0 0 0 0 0 0 0 -0 -0 -0 0 0 0 0 0 0 0 0 0 0 0 0 0 0 0 0 0 0 0 0 0
0 0 0 0 0 0 0 0 0 -0 -0 0 0 0 0 0 1 0 0 0 0 0 0 0 0 0 0 0 0 0 0 0
0 0 0 0 0 0 0 0 0 -0 -0 -0 0 0 0 1 1 1 1 0 0 0 0 0 0 0 0 0 0 0 0 0
0 0 0 0 -0 0 0 0 0 0 0 -0 0 0 0 1 1 1 1 0 0 0 0 0 0 1 1 1 0 0 0 0
Wind_Speed_500mb
9 7 11 9 9 5 14 30 18 6 11 9 11 30 50 28 23 35 64 73 73 64 62 54 49 51 52 51 51 48 48 45
8 10 9 9 4 5 16 13 25 20 14 23 36 14 31 29 37 55 64 76 72 65 66 59 51 51 52 52 51 51 50 47
5 6 9 7 10 9 9 11 21 30 10 27 38 45 31 35 53 66 63 70 72 67 67 61 53 51 52 52 53 53 51 48
3 7 8 11 15 9 5 9 32 23 38 23 26 34 30 43 56 57 45 71 71 69 68 63 56 53 52 52 53 53 51 47
8 5 8 7 7 5 8 16 14 39 9 27 43 31 36 40 58 67 48 73 73 70 68 63 58 55 52 51 51 50 48 46
6 7 9 5 25 15 12 10 29 16 9 23 77 77 49 46 54 58 59 76 77 73 71 65 62 58 54 52 51 48 46 43
6 8 8 19 12 7 16 37 26 41 41 58 73 52 52 48 53 51 57 75 83 79 74 70 64 60 56 52 48 45 44 40
10 6 12 16 17 48 14 25 33 55 42 47 33 32 49 58 62 62 68 81 86 85 81 76 69 65 60 55 51 47 44 40
10 20 23 12 18 22 8 12 33 32 45 40 28 19 36 37 45 71 75 87 93 89 85 80 77 72 66 59 51 44 41 38
17 26 29 10 21 16 25 30 41 48 38 34 28 31 26 41 33 46 76 90 91 90 89 85 81 75 69 62 52 46 43 40
36 34 43 37 24 25 19 31 33 33 35 28 27 24 42 44 37 41 69 84 92 92 91 87 81 77 71 63 55 47 44 42
29 36 17 11 16 11 24 19 20 23 22 24 25 26 28 34 55 48 61 80 84 92 92 86 85 80 73 62 54 47 46 43
8 8 9 28 24 11 12 25 27 30 34 39 37 32 38 34 44 70 53 69 78 82 87 86 85 78 71 61 52 48 46 43
9 11 7 8 28 4 24 35 31 25 31 39 43 43 40 37 42 57 72 59 79 79 78 83 82 76 70 62 52 48 46 43
12 4 7 2 36 8 44 19 20 18 36 43 43 46 40 43 50 56 65 62 73 82 82 80 77 71 66 59 53 50 47 41
12 12 6 14 44 20 28 33 25 22 34 43 46 48 38 38 29 51 43 60 58 77 75 77 73 68 63 56 53 49 46 43
21 24 6 23 42 38 38 29 16 21 33 46 49 45 44 46 47 53 44 49 42 65 73 75 73 70 67 64 54 49 48 41
16 20 7 18 35 45 30 22 24 19 33 42 48 44 44 47 51 55 56 58 49 53 70 75 73 70 68 62 58 51 46 41
22 11 12 15 32 30 16 32 42 36 39 45 45 43 45 54 54 52 53 67 59 55 67 74 71 70 68 64 62 58 48 40
27 8 9 7 20 22 14 22 14 28 29 54 47 43 43 57 65 46 60 67 67 63 71 71 69 71 74 73 68 60 52 46
Wind_Direction_500mb
120 128 182 210 227 216 316 326 335 310 246 221 236 236 238 249 214 195 180 184 179 178 179 181 185 183 185 187 189 189 187 186
108 202 249 213 157 329 332 346 334 314 268 280 273 274 245 239 191 189 182 184 184 184 182 181 184 185 185 184 186 185 185 185
76 260 271 252 254 292 323 289 312 330 289 292 275 278 262 225 200 198 187 190 186 186 182 183 185 187 185 183 185 186 187 188
191 255 267 274 268 280 299 341 326 342 318 285 292 279 249 208 211 211 206 195 190 187 185 184 186 187 187 185 187 189 191 194
158 203 310 265 355 103 341 334 313 328 280 288 306 286 232 227 212 213 222 197 194 192 188 186 188 189 189 188 191 193 194 195
210 196 249 296 340 320 2 310 315 321 286 308 307 295 269 232 220 217 221 201 199 195 191 191 190 190 191 191 193 194 197 198
238 169 248 293 320 261 291 287 282 301 300 316 309 266 254 224 209 210 210 199 199 197 195 196 195 193 193 194 195 194 197 196
214 230 246 282 298 299 278 277 287 291 303 324 331 238 233 218 207 206 207 198 200 200 198 197 198 197 196 197 196 196 195 192
265 292 308 278 294 295 254 279 273 269 307 312 309 245 228 227 226 211 205 199 201 201 200 199 201 200 199 199 198 198 195 189
309 316 315 281 287 282 259 267 288 280 287 289 296 283 261 245 246 222 208 204 204 203 203 201 204 203 202 202 199 199 194 190
304 305 300 298 257 271 260 295 313 274 275 270 275 285 279 262 248 230 220 212 210 208 206 203 205 206 205 203 202 199 195 191
296 293 287 287 268 278 314 327 318 304 292 282 260 265 269 271 261 245 227 221 216 212 210 206 207 206 206 204 203 200 196 195
294 312 279 332 292 187 88 10 2 336 318 294 284 271 282 287 251 238 233 219 218 216 215 207 209 207 207 207 206 202 198 194
293 328 304 24 275 241 8 350 338 323 315 298 290 287 281 286 257 238 234 220 222 219 221 211 209 207 206 207 207 203 200 195
307 257 265 267 290 162 295 298 300 297 304 300 290 281 275 278 234 220 228 229 222 220 222 213 210 208 207 207 207 202 198 194
264 287 264 286 282 282 282 276 258 263 293 294 295 281 285 274 225 211 225 233 224 220 221 214 211 206 205 207 207 201 199 194
275 277 268 276 284 294 291 278 259 244 279 285 287 283 279 262 229 222 215 211 212 216 217 213 210 207 203 203 201 197 195 197
281 269 187 271 276 287 290 279 276 250 268 265 280 282 270 258 229 200 205 206 229 217 218 219 213 209 207 197 193 192 190 194
260 288 273 277 281 287 287 279 291 288 258 249 260 272 264 249 217 197 205 195 216 239 216 217 213 210 204 195 191 191 196 201
260 272 253 166 290 280 268 280 283 282 269 253 240 258 258 234 218 218 223 215 218 227 216 212 211 207 202 192 189 194 200 199
Wind_Speed_850mb
9 7 11 9 9 5 14 30 18 6 11 9 11 30 50 28 23 35 64 73 73 64 62 54 49 51 52 51 51 48 48 45
8 10 9 9 4 5 16 13 25 20 14 23 36 14 31 29 37 55 64 76 72 65 66 59 51 51 52 52 51 51 50 47
5 6 9 7 10 9 9 11 21 30 10 27 38 45 31 35 53 66 63 70 72 67 67 61 53 51 52 52 53 53 51 48
3 7 8 11 15 9 5 9 32 23 38 23 26 34 30 43 56 57 45 71 71 69 68 63 56 53 52 52 53 53 51 47
8 5 8 7 7 5 8 16 14 39 9 27 43 31 36 40 58 67 48 73 73 70 68 63 58 55 52 51 51 50 48 46
6 7 9 5 25 15 12 10 29 16 9 23 77 77 49 46 54 58 59 76 77 73 71 65 62 58 54 52 51 48 46 43
6 8 8 19 12 7 16 37 26 41 41 58 73 52 52 48 53 51 57 75 83 79 74 70 64 60 56 52 48 45 44 40
10 6 12 16 17 48 14 25 33 55 42 47 33 32 49 58 62 62 68 81 86 85 81 76 69 65 60 55 51 47 44 40
10 20 23 12 18 22 8 12 33 32 45 40 28 19 36 37 45 71 75 87 93 89 85 80 77 72 66 59 51 44 41 38
17 26 29 10 21 16 25 30 41 48 38 34 28 31 26 41 33 46 76 90 91 90 89 85 81 75 69 62 52 46 43 40
36 34 43 37 24 25 19 31 33 33 35 28 27 24 42 44 37 41 69 84 92 92 91 87 81 77 71 63 55 47 44 42
29 36 17 11 16 11 24 19 20 23 22 24 25 26 28 34 55 48 61 80 84 92 92 86 85 80 73 62 54 47 46 43
8 8 9 28 24 11 12 25 27 30 34 39 37 32 38 34 44 70 53 69 78 82 87 86 85 78 71 61 52 48 46 43
9 11 7 8 28 4 24 35 31 25 31 39 43 43 40 37 42 57 72 59 79 79 78 83 82 76 70 62 52 48 46 43
12 4 7 2 36 8 44 19 20 18 36 43 43 46 40 43 50 56 65 62 73 82 82 80 77 71 66 59 53 50 47 41
12 12 6 14 44 20 28 33 25 22 34 43 46 48 38 38 29 51 43 60 58 77 75 77 73 68 63 56 53 49 46 43
21 24 6 23 42 38 38 29 16 21 33 46 49 45 44 46 47 53 44 49 42 65 73 75 73 70 67 64 54 49 48 41
16 20 7 18 35 45 30 22 24 19 33 42 48 44 44 47 51 55 56 58 49 53 70 75 73 70 68 62 58 51 46 41
22 11 12 15 32 30 16 32 42 36 39 45 45 43 45 54 54 52 53 67 59 55 67 74 71 70 68 64 62 58 48 40
27 8 9 7 20 22 14 22 14 28 29 54 47 43 43 57 65 46 60 67 67 63 71 71 69 71 74 73 68 60 52 46
Wind_Direction_850mb
120 128 182 210 227 216 316 326 335 310 246 221 236 236 238 249 214 195 180 184 179 178 179 181 185 183 185 187 189 189 187 186
108 202 249 213 157 329 332 346 334 314 268 280 273 274 245 239 191 189 182 184 184 184 182 181 184 185 185 184 186 185 185 185
76 260 271 252 254 292 323 289 312 330 289 292 275 278 262 225 200 198 187 190 186 186 182 183 185 187 185 183 185 186 187 188
191 255 267 274 268 280 299 341 326 342 318 285 292 279 249 208 211 211 206 195 190 187 185 184 186 187 187 185 187 189 191 194
158 203 310 265 355 103 341 334 313 328 280 288 306 286 232 227 212 213 222 197 194 192 188 186 188 189 189 188 191 193 194 195
210 196 249 296 340 320 2 310 315 321 286 308 307 295 269 232 220 217 221 201 199 195 191 191 190 190 191 191 193 194 197 198
238 169 248 293 320 261 291 287 282 301 300 316 309 266 254 224 209 210 210 199 199 197 195 196 195 193 193 194 195 194 197 196
214 230 246 282 298 299 278 277 287 291 303 324 331 238 233 218 207 206 207 198 200 200 198 197 198 197 196 197 196 196 195 192
265 292 308 278 294 295 254 279 273 269 307 312 309 245 228 227 226 211 205 199 201 201 200 199 201 200 199 199 198 198 195 189
309 316 315 281 287 282 259 267 288 280 287 289 296 283 261 245 246 222 208 204 204 203 203 201 204 203 202 202 199 199 194 190
304 305 300 298 257 271 260 295 313 274 275 270 275 285 279 262 248 230 220 212 210 208 206 203 205 206 205 203 202 199 195 191
296 293 287 287 268 278 314 327 318 304 292 282 260 265 269 271 261 245 227 221 216 212 210 206 207 206 206 204 203 200 196 195
294 312 279 332 292 187 88 10 2 336 318 294 284 271 282 287 251 238 233 219 218 216 215 207 209 207 207 207 206 202 198 194
293 328 304 24 275 241 8 350 338 323 315 298 290 287 281 286 257 238 234 220 222 219 221 211 209 207 206 207 207 203 200 195
307 257 265 267 290 162 295 298 300 297 304 300 290 281 275 278 234 220 228 229 222 220 222 213 210 208 207 207 207 202 198 194
264 287 264 286 282 282 282 276 258 263 293 294 295 281 285 274 225 211 225 233 224 220 221 214 211 206 205 207 207 201 199 194
275 277 268 276 284 294 291 278 259 244 279 285 287 283 279 262 229 222 215 211 212 216 217 213 210 207 203 203 201 197 195 197
281 269 187 271 276 287 290 279 276 250 268 265 280 282 270 258 229 200 205 206 229 217 218 219 213 209 207 197 193 192 190 194
260 288 273 277 281 287 287 279 291 288 258 249 260 272 264 249 217 197 205 195 216 239 216 217 213 210 204 195 191 191 196 201
260 272 253 166 290 280 268 280 283 282 269 253 240 258 258 234 218 218 223 215 218 227 216 212 211 207 202 192 189 194 200 199